Retour au catalogue

ONEWEB-0132

ActifCommunicationsPO
NORAD 47278·PAYLOAD·🇬🇧 United Kingdom

Lancé Dec 18, 2020 depuis Vostochny Cosmodrome

Loading…

Prochains Passages (prochaines 24 heures)

TLE

FraisSource: CelesTrak SupGP

Époque: Sep 14, 2026, 14:05 UTC

1 47278C 20100W   26257.58698333  .00002596  00000+0  72245-2 0  2578
2 47278  87.8989 332.9211 0001964 100.6258   2.1280 13.12443231    10

Suivez ONEWEB-0132 en temps réel avec AllMySat

Download on the App Store